Time,TemperatureF,DewpointF,PressureIn,WindDirection,WindDirectionDegrees,WindSpeedMPH,WindSpeedGustMPH,Humidity,HourlyPrecipIn,Conditions,Clouds,dailyrainin,SoftwareType,DateUTC
2013-07-08 00:01:00,78.0,69.0,-100.00,SSE,157,4.0,-999.0,75,-99.99,,,-99.99,,2013-07-08 05:01:00,
2013-07-08 00:11:00,78.0,69.0,-100.00,SSE,157,4.0,-999.0,75,-99.99,,,-99.99,,2013-07-08 05:11:00,
2013-07-08 00:22:00,78.0,69.0,-100.00,South,180,3.0,-999.0,74,-99.99,,,-99.99,,2013-07-08 05:22:00,
2013-07-08 00:33:00,77.0,69.0,-100.00,South,180,3.0,-999.0,74,-99.99,,,-99.99,,2013-07-08 05:33:00,
2013-07-08 00:43:00,77.0,69.0,-100.00,South,180,3.0,-999.0,74,-99.99,,,-99.99,,2013-07-08 05:43:00,
2013-07-08 00:53:00,77.0,69.0,-100.00,SSE,157,2.0,-999.0,74,-99.99,,,-99.99,,2013-07-08 05:53:00,
2013-07-08 01:01:00,78.0,68.0,-100.00,SE,135,1.0,-999.0,73,-99.99,,,-99.99,,2013-07-08 06:01:00,
2013-07-08 01:11:00,78.0,68.0,-100.00,SE,135,1.0,-999.0,73,-99.99,,,-99.99,,2013-07-08 06:11:00,
2013-07-08 01:22:00,78.0,68.0,-100.00,SE,135,1.0,-999.0,73,-99.99,,,-99.99,,2013-07-08 06:22:00,
2013-07-08 01:33:00,78.0,68.0,-100.00,SSW,202,1.0,-999.0,71,-99.99,,,-99.99,,2013-07-08 06:33:00,
2013-07-08 01:43:00,78.0,68.0,-100.00,SSW,202,1.0,-999.0,71,-99.99,,,-99.99,,2013-07-08 06:43:00,
2013-07-08 01:53:00,77.0,69.0,-100.00,West,270,0.0,-999.0,76,-99.99,,,-99.99,,2013-07-08 06:53:00,
2013-07-08 02:02:00,78.0,69.0,-100.00,ENE,67,0.0,-999.0,74,-99.99,,,-99.99,,2013-07-08 07:02:00,
2013-07-08 02:12:00,78.0,69.0,-100.00,ENE,67,0.0,-999.0,74,-99.99,,,-99.99,,2013-07-08 07:12:00,
2013-07-08 02:22:00,78.0,69.0,-100.00,ENE,67,0.0,-999.0,74,-99.99,,,-99.99,,2013-07-08 07:22:00,
2013-07-08 02:34:00,76.0,68.0,-100.00,NW,315,1.0,-999.0,76,-99.99,,,-99.99,,2013-07-08 07:34:00,
2013-07-08 02:44:00,76.0,68.0,-100.00,NW,315,1.0,-999.0,76,-99.99,,,-99.99,,2013-07-08 07:44:00,
2013-07-08 02:53:00,77.0,67.0,-100.00,South,180,2.0,-999.0,70,-99.99,,,-99.99,,2013-07-08 07:53:00,
2013-07-08 03:02:00,76.0,66.0,-100.00,South,180,2.0,-999.0,71,-99.99,,,-99.99,,2013-07-08 08:02:00,
2013-07-08 03:12:00,76.0,66.0,-100.00,South,180,2.0,-999.0,71,-99.99,,,-99.99,,2013-07-08 08:12:00,
2013-07-08 03:22:00,76.0,66.0,-100.00,South,180,2.0,-999.0,70,-99.99,,,-99.99,,2013-07-08 08:22:00,
2013-07-08 03:33:00,75.0,65.0,-100.00,South,180,2.0,-999.0,72,-99.99,,,-99.99,,2013-07-08 08:33:00,
2013-07-08 03:42:00,75.0,65.0,-100.00,South,180,2.0,-999.0,72,-99.99,,,-99.99,,2013-07-08 08:42:00,
2013-07-08 03:53:00,75.0,65.0,-100.00,South,180,3.0,-999.0,70,-99.99,,,-99.99,,2013-07-08 08:53:00,
2013-07-08 04:01:00,76.0,65.0,-100.00,South,180,6.0,-999.0,67,-99.99,,,-99.99,,2013-07-08 09:01:00,
2013-07-08 04:11:00,76.0,65.0,-100.00,South,180,6.0,-999.0,67,-99.99,,,-99.99,,2013-07-08 09:11:00,
2013-07-08 04:22:00,77.0,65.0,-100.00,South,180,5.0,-999.0,65,-99.99,,,-99.99,,2013-07-08 09:22:00,
2013-07-08 04:34:00,78.0,65.0,-100.00,SSW,202,4.0,-999.0,64,-99.99,,,-99.99,,2013-07-08 09:34:00,
2013-07-08 04:43:00,78.0,65.0,-100.00,SSW,202,4.0,-999.0,64,-99.99,,,-99.99,,2013-07-08 09:43:00,
2013-07-08 04:53:00,78.0,65.0,-100.00,South,180,2.0,-999.0,65,-99.99,,,-99.99,,2013-07-08 09:53:00,
2013-07-08 05:01:00,78.0,64.0,-100.00,South,180,6.0,-999.0,63,-99.99,,,-99.99,,2013-07-08 10:01:00,
2013-07-08 05:11:00,78.0,64.0,-100.00,South,180,6.0,-999.0,63,-99.99,,,-99.99,,2013-07-08 10:11:00,
2013-07-08 05:22:00,78.0,65.0,-100.00,South,180,4.0,-999.0,63,-99.99,,,-99.99,,2013-07-08 10:22:00,
2013-07-08 05:34:00,77.0,65.0,-100.00,South,180,3.0,-999.0,66,-99.99,,,-99.99,,2013-07-08 10:34:00,
2013-07-08 05:43:00,77.0,65.0,-100.00,South,180,3.0,-999.0,66,-99.99,,,-99.99,,2013-07-08 10:43:00,
2013-07-08 05:53:00,77.0,66.0,-100.00,SSW,202,4.0,-999.0,68,-99.99,,,-99.99,,2013-07-08 10:53:00,
2013-07-08 06:02:00,76.0,66.0,-100.00,South,180,5.0,-999.0,69,-99.99,,,-99.99,,2013-07-08 11:02:00,
2013-07-08 06:11:00,76.0,66.0,-100.00,South,180,5.0,-999.0,69,-99.99,,,-99.99,,2013-07-08 11:11:00,
2013-07-08 06:22:00,76.0,66.0,-100.00,South,180,6.0,-999.0,69,-99.99,,,-99.99,,2013-07-08 11:22:00,
2013-07-08 06:33:00,76.0,66.0,-100.00,South,180,6.0,-999.0,70,-99.99,,,-99.99,,2013-07-08 11:33:00,
2013-07-08 06:43:00,76.0,66.0,-100.00,South,180,6.0,-999.0,70,-99.99,,,-99.99,,2013-07-08 11:43:00,
2013-07-08 06:53:00,76.0,66.0,-100.00,South,180,4.0,-999.0,72,-99.99,,,-99.99,,2013-07-08 11:53:00,
2013-07-08 07:01:00,76.0,66.0,-100.00,South,180,6.0,-999.0,72,-99.99,,,-99.99,,2013-07-08 12:01:00,
2013-07-08 07:22:00,76.0,66.0,-100.00,South,180,6.0,-999.0,72,-99.99,,,-99.99,,2013-07-08 12:22:00,
2013-07-08 07:33:00,76.0,66.0,-100.00,South,180,6.0,-999.0,72,-99.99,,,-99.99,,2013-07-08 12:33:00,
2013-07-08 07:43:00,76.0,66.0,-100.00,South,180,6.0,-999.0,72,-99.99,,,-99.99,,2013-07-08 12:43:00,
2013-07-08 07:53:00,76.0,66.0,-100.00,South,180,6.0,-999.0,71,-99.99,,,-99.99,,2013-07-08 12:53:00,
2013-07-08 08:01:00,77.0,67.0,-100.00,South,180,7.0,-999.0,71,-99.99,,,-99.99,,2013-07-08 13:01:00,
2013-07-08 08:22:00,77.0,67.0,-100.00,South,180,4.0,-999.0,71,-99.99,,,-99.99,,2013-07-08 13:22:00,
2013-07-08 08:33:00,77.0,67.0,-100.00,South,180,6.0,-999.0,72,-99.99,,,-99.99,,2013-07-08 13:33:00,
2013-07-08 08:42:00,77.0,67.0,-100.00,South,180,6.0,-999.0,72,-99.99,,,-99.99,,2013-07-08 13:42:00,
2013-07-08 08:53:00,77.0,67.0,-100.00,South,180,4.0,-999.0,71,-99.99,,,-99.99,,2013-07-08 13:53:00,
2013-07-08 09:02:00,78.0,68.0,-100.00,South,180,6.0,-999.0,70,-99.99,,,-99.99,,2013-07-08 14:02:00,
2013-07-08 09:22:00,78.0,68.0,-100.00,South,180,4.0,-999.0,70,-99.99,,,-99.99,,2013-07-08 14:22:00,
2013-07-08 09:33:00,79.0,68.0,-100.00,South,180,5.0,-999.0,69,-99.99,,,-99.99,,2013-07-08 14:33:00,
2013-07-08 09:43:00,79.0,68.0,-100.00,South,180,5.0,-999.0,69,-99.99,,,-99.99,,2013-07-08 14:43:00,
2013-07-08 09:53:00,78.0,67.0,-100.00,South,180,6.0,-999.0,68,-99.99,,,-99.99,,2013-07-08 14:53:00,
2013-07-08 10:01:00,78.0,67.0,-100.00,South,180,4.0,-999.0,69,-99.99,,,-99.99,,2013-07-08 15:01:00,
2013-07-08 10:22:00,78.0,68.0,-100.00,South,180,4.0,-999.0,69,-99.99,,,-99.99,,2013-07-08 15:22:00,
2013-07-08 10:33:00,78.0,68.0,-100.00,SSW,202,6.0,-999.0,70,-99.99,,,-99.99,,2013-07-08 15:33:00,
2013-07-08 10:43:00,78.0,68.0,-100.00,SSW,202,6.0,-999.0,70,-99.99,,,-99.99,,2013-07-08 15:43:00,
2013-07-08 10:53:00,79.0,68.0,-100.00,South,180,5.0,-999.0,69,-99.99,,,-99.99,,2013-07-08 15:53:00,
2013-07-08 11:01:00,79.0,68.0,-100.00,South,180,5.0,-999.0,69,-99.99,,,-99.99,,2013-07-08 16:01:00,
2013-07-08 11:22:00,80.0,68.0,-100.00,SSW,202,4.0,-999.0,67,-99.99,,,-99.99,,2013-07-08 16:22:00,
2013-07-08 11:33:00,82.0,69.0,-100.00,South,180,3.0,-999.0,65,-99.99,,,-99.99,,2013-07-08 16:33:00,
2013-07-08 11:43:00,82.0,69.0,-100.00,South,180,3.0,-999.0,65,-99.99,,,-99.99,,2013-07-08 16:43:00,
2013-07-08 11:57:00,82.0,69.0,-100.00,SSW,202,4.0,-999.0,64,-99.99,,,-99.99,,2013-07-08 16:57:00,
2013-07-08 12:36:00,82.0,68.0,-100.00,South,180,4.0,-999.0,62,-99.99,,,-99.99,,2013-07-08 17:36:00,
2013-07-08 12:45:00,82.0,68.0,-100.00,South,180,4.0,-999.0,62,-99.99,,,-99.99,,2013-07-08 17:45:00,
2013-07-08 12:55:00,84.0,69.0,-100.00,South,180,3.0,-999.0,59,-99.99,,,-99.99,,2013-07-08 17:55:00,
2013-07-08 13:04:00,86.0,68.0,-100.00,South,180,6.0,-999.0,56,-99.99,,,-99.99,,2013-07-08 18:04:00,
2013-07-08 13:38:00,87.0,70.0,-100.00,South,180,4.0,-999.0,56,-99.99,,,-99.99,,2013-07-08 18:38:00,
2013-07-08 14:00:00,85.0,70.0,-100.00,South,180,1.0,-999.0,60,-99.99,,,-99.99,,2013-07-08 19:00:00,
2013-07-08 14:07:00,85.0,71.0,-100.00,SE,135,1.0,-999.0,61,-99.99,,,-99.99,,2013-07-08 19:07:00,
2013-07-08 14:29:00,86.0,71.0,-100.00,SSE,157,1.0,-999.0,60,-99.99,,,-99.99,,2013-07-08 19:29:00,
2013-07-08 14:36:00,87.0,71.0,-100.00,SSE,157,2.0,-999.0,59,-99.99,,,-99.99,,2013-07-08 19:36:00,
2013-07-08 15:07:00,88.0,70.0,-100.00,South,180,4.0,-999.0,55,-99.99,,,-99.99,,2013-07-08 20:07:00,
2013-07-08 15:38:00,87.0,69.0,-100.00,SSE,157,6.0,-999.0,54,-99.99,,,-99.99,,2013-07-08 20:38:00,
2013-07-08 16:05:00,89.0,69.0,-100.00,SSE,157,6.0,-999.0,52,-99.99,,,-99.99,,2013-07-08 21:05:00,
2013-07-08 16:29:00,90.0,69.0,-100.00,South,180,5.0,-999.0,50,-99.99,,,-99.99,,2013-07-08 21:29:00,
2013-07-08 16:48:00,91.0,69.0,-100.00,SSE,157,5.0,-999.0,49,-99.99,,,-99.99,,2013-07-08 21:48:00,
2013-07-08 17:09:00,91.0,71.0,-100.00,ESE,112,6.0,-999.0,51,-99.99,,,-99.99,,2013-07-08 22:09:00,
2013-07-08 17:50:00,94.0,70.0,-100.00,SSE,157,8.0,-999.0,46,-99.99,,,-99.99,,2013-07-08 22:50:00,
2013-07-08 18:38:00,91.0,73.0,-100.00,ESE,112,6.0,-999.0,55,-99.99,,,-99.99,,2013-07-08 23:38:00,
2013-07-08 18:49:00,91.0,73.0,-100.00,ESE,112,6.0,-999.0,55,-99.99,,,-99.99,,2013-07-08 23:49:00,
2013-07-08 19:18:00,92.0,72.0,-100.00,SE,135,7.0,-999.0,52,-99.99,,,-99.99,,2013-07-09 00:18:00,
2013-07-08 19:49:00,90.0,72.0,-100.00,ESE,112,11.0,-999.0,55,-99.99,,,-99.99,,2013-07-09 00:49:00,
2013-07-08 20:06:00,89.0,72.0,-100.00,ESE,112,9.0,-999.0,57,-99.99,,,-99.99,,2013-07-09 01:06:00,
2013-07-08 20:30:00,87.0,73.0,-100.00,ESE,112,7.0,-999.0,64,-99.99,,,-99.99,,2013-07-09 01:30:00,
2013-07-08 20:37:00,86.0,73.0,-100.00,SE,135,6.0,-999.0,66,-99.99,,,-99.99,,2013-07-09 01:37:00,
2013-07-08 20:49:00,86.0,73.0,-100.00,SE,135,6.0,-999.0,66,-99.99,,,-99.99,,2013-07-09 01:49:00,
2013-07-08 21:15:00,85.0,71.0,-100.00,SE,135,6.0,-999.0,62,-99.99,,,-99.99,,2013-07-09 02:15:00,
2013-07-08 21:27:00,83.0,70.0,-100.00,SE,135,6.0,-999.0,63,-99.99,,,-99.99,,2013-07-09 02:27:00,
2013-07-08 21:39:00,82.0,70.0,-100.00,SE,135,5.0,-999.0,67,-99.99,,,-99.99,,2013-07-09 02:39:00,
2013-07-08 22:07:00,81.0,70.0,-100.00,SSE,157,4.0,-999.0,68,-99.99,,,-99.99,,2013-07-09 03:07:00,
2013-07-08 22:38:00,79.0,69.0,-100.00,SSE,157,4.0,-999.0,71,-99.99,,,-99.99,,2013-07-09 03:38:00,
2013-07-08 23:02:00,79.0,68.0,-100.00,SE,135,4.0,-999.0,70,-99.99,,,-99.99,,2013-07-09 04:02:00,
2013-07-08 23:22:00,80.0,68.0,-100.00,SSE,157,7.0,-999.0,67,-99.99,,,-99.99,,2013-07-09 04:22:00,
2013-07-08 23:33:00,81.0,67.0,-100.00,SSE,157,8.0,-999.0,63,-99.99,,,-99.99,,2013-07-09 04:33:00,
2013-07-08 23:42:00,81.0,67.0,-100.00,SSE,157,8.0,-999.0,63,-99.99,,,-99.99,,2013-07-09 04:42:00,
2013-07-08 23:53:00,81.0,67.0,-100.00,SSE,157,9.0,-999.0,62,-99.99,,,-99.99,,2013-07-09 04:53:00,